[[{"header":{"parameterUnit":"m.s-1","parameterCategory":1,"la1":30.2991,"la2":30.254,"lo1":-89.0895,"lo2":-89.0444,"dy":0.0017,"dx":0.0017,"nx":28,"ny":28,"refTime":"2025-06-08T09:00:00:Z","depth":0,"parameterNumber":2,"parameterNumberName":"U-component_of_WINDS"},"data":[0,0,0,0,0,0,0,0,0,0,0,0,0,0,0,0,0,0,0,0,0,0,0,0,0,0,0,0,0,0,0,0,0,0,0,0,0,0,0,0,0,0,0,0,0,0,0,0,0,0,0,0,0,0,0,0,0,0,2.6607,2.6608,0,2.6744,2.6746,2.6747,2.6707,2.6704,2.6701,2.6699,2.6846,2.6852,2.6859,0,0,0,0,0,0,0,0,0,0,0,0,0,2.6317,2.6323,2.6607,2.6608,2.661,2.6744,2.6746,2.6748,2.6708,2.6704,2.6701,2.6697,2.6844,2.6852,2.6859,0,0,0,0,0,0,0,0,0,0,0,0,0,2.6448,2.6324,2.6606,2.6606,2.6607,2.6743,2.6746,2.6748,2.6708,2.6704,2.67,2.6696,2.6841,2.6851,2.6861,2.7007,0,0,2.6891,2.6895,0,0,0,0,0,0,0,0,2.644,2.6458,2.6604,2.6606,2.6608,2.6704,2.6698,2.6835,2.6709,2.667,2.6699,2.6694,2.6803,2.6815,2.6851,2.7014,2.702,2.6892,2.6898,2.6902,2.6905,0,0,0,0,0,0,0,2.6431,2.6452,2.6661,2.6607,2.6609,2.6602,2.6615,2.6723,2.6759,2.6673,2.6671,2.6687,2.6803,2.6841,2.6854,2.7023,2.6891,2.69,2.6906,2.691,2.7315,2.732,0,0,0,0,0,0,2.642,2.6445,2.6657,2.6665,2.6512,2.661,2.6626,2.6678,2.6758,2.6766,2.6691,2.6685,2.6827,2.6842,2.6859,2.7037,2.6902,2.6911,2.6917,2.731,2.7316,2.7321,0,0,0,0,0,0,2.6414,2.6439,2.6651,2.6555,2.6581,2.662,2.6678,2.6683,2.6721,2.6771,2.6777,2.6723,2.6824,2.6845,2.6971,2.7041,2.6915,2.6924,2.7305,2.7312,2.7319,2.7393,0,0,0,0,0,0,2.6406,2.6437,2.6492,2.6556,2.6586,2.6759,2.6683,2.6688,2.6737,2.6731,2.6803,2.6811,2.6822,2.6956,2.698,2.7053,2.6932,2.7298,2.7308,2.7316,2.7385,2.7402,2.7417,0,0,0,0,0,2.6396,2.6508,2.6495,2.652,2.6654,2.6763,2.678,2.6789,2.6743,2.6799,2.6831,2.6808,2.703,2.6969,2.6996,2.7073,2.7294,2.7305,2.7316,2.7377,2.7399,2.7417,0,0,0,0,0,0,2.6453,2.6516,2.6502,2.6638,2.6695,2.6756,2.6826,2.6811,2.6884,2.6875,2.6885,2.6902,2.7031,2.7064,2.6996,2.722,2.7155,2.7172,2.7193,2.7214,2.7229,2.7219,2.694,0,0,0,0,0,2.6481,2.6561,2.6614,2.6729,2.6758,2.6788,2.6835,2.6837,2.6897,2.6922,2.6963,2.7024,2.7108,2.7162,2.7242,2.7389,2.7405,2.7455,2.7471,2.7485,2.7499,2.7581,2.7605,2.7357,2.7357,2.7357,0,0,2.6541,2.6585,2.6636,2.6742,2.6786,2.6871,2.6808,2.6901,2.6965,2.6936,2.7057,2.709,2.7159,2.7296,2.7359,2.7328,2.7571,2.7498,2.7508,2.7516,2.7595,2.7618,2.7639,2.7365,2.7363,2.7362,0,0,2.6693,2.6734,2.6835,2.6881,2.6948,2.6967,2.6992,2.7055,2.7075,2.7196,2.7176,2.7254,2.7397,2.7448,2.7492,2.7665,2.7647,2.7691,2.7776,2.7856,2.7875,2.7893,2.7956,2.7978,2.7705,2.7705,2.7706,0,2.6759,2.6884,2.689,2.6984,2.7032,2.7009,2.7113,2.7157,2.7248,2.7283,2.7247,2.7426,2.7471,2.7621,2.7663,2.77,2.7729,2.7683,2.7872,2.7889,2.7905,2.7966,2.7989,2.771,2.771,2.7709,2.7709,0,2.6963,2.7051,2.7125,2.7211,2.7268,2.7367,2.7389,2.7446,2.7444,2.7468,2.7592,2.7645,2.7736,2.7771,2.777,2.7922,2.7901,2.7868,2.7804,2.7934,2.7991,2.8014,2.7717,2.7716,2.7714,2.7713,0,0,2.7155,2.7243,2.727,2.731,2.7383,2.7452,2.7551,2.7637,2.7687,2.7751,2.7836,2.7958,2.7928,2.7979,2.7984,2.8054,2.8189,2.8013,2.8015,2.8045,2.8361,2.8385,2.8411,2.8177,2.8182,2.8185,2.8355,0,2.7314,2.7485,2.7493,2.765,2.7733,2.7712,2.7799,2.7855,2.788,2.7956,2.7984,2.8071,2.8025,2.8056,2.8124,2.8158,2.8253,2.8146,2.8259,2.8262,2.8242,2.8441,2.8467,2.8624,2.8377,2.8381,2.8384,0,2.7522,2.759,2.7755,2.7818,2.7853,2.793,2.8011,2.8082,2.8146,2.816,2.8217,2.8212,2.8316,2.8248,2.8393,2.832,2.8367,2.8391,2.8397,2.8408,2.8331,2.8459,2.8675,2.8699,2.8419,2.8416,2.8413,0,2.7646,2.778,2.7896,2.7931,2.8006,2.8062,2.8096,2.8155,2.8207,2.8279,2.8313,2.8397,2.8443,2.8509,2.8527,2.8476,2.8673,2.8605,2.8689,2.8688,2.8731,2.8728,2.8959,2.8761,2.876,2.876,2.8759,0,2.7823,2.7925,2.7953,2.8025,2.8139,2.8149,2.8263,2.8294,2.8347,2.8427,2.8415,2.849,2.851,2.859,2.8605,2.8724,2.8745,2.876,2.8763,2.8762,2.876,2.8793,2.8783,2.8766,2.8765,2.8763,2.8762,0,2.7981,2.8004,2.8129,2.819,2.8208,2.829,2.8344,2.8414,2.8438,2.8539,2.8563,2.8601,2.8695,2.872,2.8832,2.8842,2.8982,2.8975,2.896,2.896,2.9042,2.9034,2.9302,2.9339,2.9116,2.9118,2.912,0,2.8092,2.817,2.824,2.8291,2.8327,2.841,2.8463,2.8477,2.8533,2.8612,2.8673,2.8764,2.8838,2.8988,2.9028,2.9114,2.9109,2.9197,2.9122,2.9118,2.9112,2.9107,2.9116,2.9212,2.9214,2.9216,2.9217,0,2.8288,2.8296,2.8371,2.8451,2.8514,2.8578,2.864,2.8683,2.8706,2.877,2.8864,2.8921,2.9035,2.9127,2.9214,2.9252,2.924,2.9241,2.9265,2.9264,2.9253,2.9261,2.9,2.9235,2.9233,2.9232,2.9231,2.923,2.8427,2.8496,2.8556,2.8641,2.8688,2.8746,2.8815,2.8848,2.8926,2.9018,2.9022,2.9125,2.9189,2.9305,2.9348,2.943,2.9404,2.9439,2.9447,2.9456,2.9463,2.9239,2.9446,2.9446,2.9445,2.9445,2.9444,0,2.8623,2.8661,2.8739,2.8825,2.8892,2.8873,2.894,2.8999,2.9089,2.9149,2.9221,2.9331,2.942,2.9466,2.9555,2.9612,2.9609,2.9636,2.9632,2.9641,2.9481,2.9452,2.9637,2.9637,2.9637,2.9637,2.9637,2.9636,2.8733,2.8849,2.8864,2.9004,2.9042,2.9141,2.9181,2.9236,2.9283,2.9405,2.9479,2.9508,2.9563,2.9656,2.9738,2.975,2.9784,2.9814,2.9822,2.9672,2.9652,2.9634,2.9606,2.9821,2.9821,2.9976,2.9977,2.9978]},{"header":{"parameterUnit":"m.s-1","parameterCategory":1,"la1":30.2991,"la2":30.254,"lo1":-89.0895,"lo2":-89.0444,"dy":0.0017,"dx":0.0017,"nx":28,"ny":28,"refTime":"2025-06-08T09:00:00:Z","depth":0,"parameterNumber":3,"parameterNumberName":"V-component_of_WINDS"},"data":[0,0,0,0,0,0,0,0,0,0,0,0,0,0,0,0,0,0,0,0,0,0,0,0,0,0,0,0,0,0,0,0,0,0,0,0,0,0,0,0,0,0,0,0,0,0,0,0,0,0,0,0,0,0,0,0,0,0,6.6901,6.6904,0,6.7156,6.7159,6.7161,6.7171,6.7168,6.7165,6.7162,6.7413,6.7422,6.7432,0,0,0,0,0,0,0,0,0,0,0,0,0,6.6413,6.6422,6.6901,6.6904,6.6908,6.7155,6.7159,6.7162,6.7171,6.7168,6.7164,6.7161,6.741,6.7421,6.7432,0,0,0,0,0,0,0,0,0,0,0,0,0,6.6642,6.6425,6.6901,6.6942,6.6949,6.7155,6.7159,6.7163,6.7172,6.7168,6.7163,6.7159,6.7406,6.742,6.7434,6.7613,0,0,6.7477,6.7484,0,0,0,0,0,0,0,0,6.6629,6.666,6.6933,6.694,6.6947,6.7127,6.7079,6.7313,6.7173,6.7087,6.7162,6.7157,6.7321,6.7342,6.7399,6.7624,6.7635,6.7479,6.7487,6.7494,6.7498,0,0,0,0,0,0,0,6.6613,6.6649,6.7001,6.6937,6.6946,6.6945,6.6972,6.7123,6.7226,6.7094,6.7095,6.7126,6.7324,6.7385,6.7405,6.7639,6.7478,6.7491,6.75,6.7505,6.8021,6.8026,0,0,0,0,0,0,6.659,6.6636,6.6993,6.7009,6.6774,6.6957,6.6988,6.7074,6.7224,6.7243,6.713,6.7125,6.7363,6.7388,6.7414,6.7633,6.7493,6.7507,6.7515,6.8016,6.8023,6.8028,0,0,0,0,0,0,6.658,6.6622,6.6983,6.6823,6.6869,6.6971,6.7067,6.7081,6.7143,6.7251,6.7269,6.7175,6.7361,6.7394,6.7564,6.7642,6.7513,6.7526,6.801,6.8018,6.8025,6.8072,0,0,0,0,0,0,6.6566,6.6619,6.669,6.6825,6.6878,6.7132,6.7072,6.7089,6.7169,6.7166,6.7298,6.7315,6.736,6.7542,6.7578,6.7659,6.7537,6.8004,6.8014,6.8023,6.8064,6.808,6.8094,0,0,0,0,0,6.6549,6.6691,6.6694,6.6737,6.697,6.7136,6.7166,6.7217,6.7175,6.7246,6.7315,6.7311,6.7627,6.756,6.76,6.7686,6.7999,6.8011,6.8022,6.8057,6.8077,6.8094,0,0,0,0,0,0,6.656,6.671,6.6714,6.6905,6.7008,6.7138,6.7229,6.7237,6.7352,6.7344,6.7399,6.7428,6.7597,6.7658,6.758,6.7866,6.7808,6.7828,6.782,6.784,6.7855,6.7837,6.7549,0,0,0,0,0,6.6585,6.6712,6.6834,6.699,6.7042,6.7127,6.7201,6.7232,6.734,6.7382,6.7464,6.7566,6.7688,6.7767,6.7886,6.8072,6.81,6.8151,6.8166,6.8178,6.8195,6.8297,6.832,6.8066,6.8066,6.8066,0,0,6.6637,6.6735,6.6811,6.6995,6.7079,6.7205,6.7163,6.7299,6.7393,6.7402,6.7568,6.7631,6.7748,6.7927,6.801,6.7983,6.8271,6.8193,6.8202,6.8212,6.8311,6.8335,6.8356,6.8074,6.8073,6.8071,0,0,6.6798,6.6885,6.7025,6.711,6.7239,6.7294,6.7327,6.7456,6.7499,6.7667,6.7677,6.7786,6.7996,6.8079,6.8149,6.8339,6.8339,6.8376,6.8455,6.8554,6.8574,6.8592,6.8659,6.8683,6.8392,6.8392,6.8392,0,6.6846,6.7041,6.7095,6.7232,6.7312,6.7329,6.7469,6.7548,6.7706,6.7759,6.7728,6.7992,6.8071,6.8269,6.8316,6.8372,6.841,6.8361,6.8567,6.8586,6.8603,6.8668,6.8693,6.8396,6.8395,6.8395,6.8395,0,6.7094,6.7228,6.7325,6.7482,6.7572,6.771,6.7781,6.7866,6.7888,6.7945,6.8114,6.8211,6.8349,6.8397,6.8419,6.8598,6.8578,6.8556,6.8499,6.863,6.8692,6.8717,6.8401,6.84,6.8399,6.8398,0,0,6.727,6.7455,6.7489,6.756,6.7702,6.7806,6.7942,6.808,6.8151,6.8259,6.8373,6.855,6.8531,6.861,6.864,6.8727,6.887,6.8695,6.8698,6.8724,6.9072,6.9088,6.9116,6.8871,6.8876,6.888,6.9062,0,6.7446,6.7694,6.7746,6.7959,6.8083,6.81,6.8218,6.8316,6.8373,6.8483,6.8543,6.8668,6.8634,6.8682,6.8768,6.8835,6.8941,6.8822,6.8975,6.898,6.8947,6.9148,6.9165,6.9333,6.9086,6.9091,6.9094,0,6.7685,6.7802,6.8029,6.8154,6.8208,6.8314,6.8444,6.855,6.866,6.8695,6.8783,6.8804,6.8943,6.8879,6.907,6.8988,6.9053,6.9095,6.9102,6.9119,6.9045,6.917,6.9388,6.9413,6.9132,6.9129,6.9126,0,6.779,6.8004,6.8168,6.8227,6.8378,6.8452,6.8517,6.8623,6.8702,6.8814,6.8866,6.8991,6.906,6.9154,6.9207,6.9156,6.9394,6.9334,6.9425,6.9423,6.9475,6.9471,6.9706,6.9516,6.9516,6.9515,6.9515,0,6.7982,6.8119,6.8217,6.8317,6.8471,6.8528,6.8677,6.8741,6.8835,6.8945,6.8965,6.9067,6.9131,6.9242,6.9283,6.9434,6.9465,6.9495,6.9504,6.9494,6.949,6.9537,6.9527,6.9522,6.9521,6.9519,6.9518,0,6.8126,6.8197,6.8376,6.8504,6.8539,6.8647,6.8754,6.8851,6.8907,6.9046,6.9082,6.9169,6.93,6.9362,6.9523,6.9551,6.9722,6.9724,6.9687,6.969,6.9777,6.9768,7.0052,7.0091,6.9875,6.9877,6.9878,0,6.8244,6.8351,6.8491,6.8568,6.8636,6.876,6.8842,6.89,6.8983,6.9116,6.9196,6.9328,6.9438,6.9645,6.972,6.9843,6.9848,6.9938,6.9866,6.9852,6.9849,6.9842,6.9852,6.9951,6.9953,6.9955,6.9957,0,6.8445,6.8475,6.8594,6.8726,6.8824,6.8929,6.9032,6.9093,6.9167,6.9259,6.9395,6.948,6.9646,6.9776,6.9904,6.9967,6.9974,6.9979,7.0006,6.9996,6.9971,6.9985,6.9722,6.9972,6.9971,6.9969,6.9969,6.9968,6.858,6.8676,6.879,6.8921,6.9005,6.9101,6.9198,6.9267,6.9383,6.9525,6.9551,6.9695,6.9799,6.9973,7.004,7.0151,7.0129,7.0169,7.0179,7.0188,7.0193,6.9953,7.0174,7.0173,7.0173,7.0173,7.0172,0,6.8782,6.8857,6.8977,6.9123,6.9225,6.9226,6.9339,6.9424,6.9552,6.9651,6.9758,6.9913,7.0039,7.0125,7.0252,7.0324,7.033,7.0355,7.0351,7.0365,7.0205,7.0169,7.0348,7.0348,7.0348,7.0348,7.0348,7.0348,6.89,6.9062,6.9105,6.9307,6.9379,6.9524,6.9589,6.9676,6.9755,6.9929,7.0035,7.0091,7.0184,7.0317,7.0432,7.0453,7.0499,7.0525,7.0545,7.0394,7.0376,7.0358,7.0325,7.0534,7.0534,7.0696,7.0698,7.0699]}]]